User: anonymous   Login
Location: ??????
(55.8274°N, 37.9338°E)
Time: 10:16:02
(UTC+00:00)
Language:

Cosmos 2369 Rocket - Orbit

View from above orbital plane
View from above orbital plane
View from above satellite
View from above satellite

Ground track
Ground track

The orbit data is extracted from the following two-line orbital elements,

1 26070U 00006B   24169.91128917 -.00000205  00000-0 -80233-4 0  9990
2 26070  71.0031 341.8877 0014665  55.8285 304.4226 14.15642892259427
Epoch (UTC): 17 June 2024 21:52:15
Eccentricity: 0.0014665
inclination: 71.0031°
perigee height: 829 km
apogee height: 851 km
right ascension of ascending node: 341.8877°
argument of perigee: 55.8285°
revolutions per day: 14.15642892
mean anomaly at epoch: 304.4226°
orbit number at epoch: 25942

The dashed part of the orbit path shows where the satellite is in the earth's shadow,  

DLR